(91891) = 1999 VJ2

Discovered at Oizumi on 1999-11-05 by T. Kobayashi.

Orbit

Orbit type: Main Belt

Note: WebGL enabled browser required.

epoch2023-09-13.0
epoch JD2460200.5
perihelion date2020-02-28.18668
perihelion JD2458907.68668
argument of perihelion (°)88.63118
ascending node (°)292.78956
inclination (°)8.78015
eccentricity0.1228882
perihelion distance (AU)2.6108945
Tisserand w.r.t. Jupiter3.2
ΔV w.r.t. Earth (km/sec)10.5
semimajor axis (AU)2.9766952
mean anomaly (°)248.10649
mean daily motion (°/day)0.19191210
aphelion distance (AU)3.342
period (years)5.14
P-vector [x]0.92012291
P-vector [y]0.27021291
P-vector [z]0.28347630
Q-vector [x]-0.36547189
Q-vector [y]0.85255584
Q-vector [z]0.37360252
absolute magnitude14.38
phase slope0.15
uncertainty0
referenceMPEC 2024-A26
observations used1227
oppositions18
arc length (days)9123
first opposition used1998
last opposition used2023
residual rms (arc-secs)0.69
perturbers coarse indicatorM-v
perturbers precise indicator003Ek
first observation date used1998-07-21.0
last observation date used2023-07-12.0
computer nameMPCLINUX
JD of orbit computation2456966.820928
perihelion JD uncertainty (days)1.6309E-04
argument of perihelion uncertainty (°)5.1350E-05
ascending node uncertainty (°)3.8727E-05
inclination uncertainty (°)5.7112E-06
eccentricity uncertainty 8.9762E-08
perihelion distance uncertainty (AU)2.7682E-07
Minimum Orbit Intersection Distances (in AU)
for orbit epoch: 2460200.5, reference: E2024-A12
Mercury2.27894
Venus1.90616
Earth1.63153
Mars1.1978
Jupiter2.1876
Saturn6.1117
Uranus15.2038
Neptune27.2444

Observations

1263 total observations over interval: 1998 07 21.21489 – 2023 07 12.887720
These data are available for download (format description).

Date (UT) J2000 RA J2000 Dec Magn Location Ref
1998 07 21.21489 19 19 56.35 -22 34 29.3 18.3   704 – Lincoln Laboratory ETS, New Mexico MPS 26545
1998 07 21.22862 19 19 55.60 -22 34 27.6 18.7   704 – Lincoln Laboratory ETS, New Mexico MPS 26545
1998 07 21.24243 19 19 54.65 -22 34 25.5 18.7   704 – Lincoln Laboratory ETS, New Mexico MPS 26546
1998 07 21.25637 19 19 53.92 -22 34 24.2 19.0   704 – Lincoln Laboratory ETS, New Mexico MPS 26546
1999 10 14.24318 02 40 32.27 +29 31 05.2 18.4   704 – Lincoln Laboratory ETS, New Mexico MPS 12043
1999 10 14.25867 02 40 31.58 +29 31 03.5 18.5   704 – Lincoln Laboratory ETS, New Mexico MPS 12043
1999 10 14.27421 02 40 30.88 +29 31 02.5 18.6   704 – Lincoln Laboratory ETS, New Mexico MPS 12043
1999 10 14.28964 02 40 30.21 +29 31 02.2 18.8   704 – Lincoln Laboratory ETS, New Mexico MPS 12043
1999 10 14.30503 02 40 29.54 +29 31 00.4 18.5   704 – Lincoln Laboratory ETS, New Mexico MPS 12043
1999 11 05.47290 02 21 50.26 +28 12 00.7 17.5   411 – Oizumi MPS 7431
1999 11 05.48323 02 21 49.66 +28 11 58.2   411 – Oizumi MPS 7431
1999 11 06.55718 02 20 53.18 +28 05 53.8   411 – Oizumi MPS 7431
1999 11 06.56310 02 20 52.88 +28 05 52.2   411 – Oizumi MPS 7431
1999 11 08.31426 02 19 21.86 +27 55 37.0 17.8 R 699 – Lowell Observatory-LONEOS MPS 8619
1999 11 08.33971 02 19 20.51 +27 55 27.1   699 – Lowell Observatory-LONEOS MPS 8619
1999 11 08.36517 02 19 19.18 +27 55 17.3   699 – Lowell Observatory-LONEOS MPS 8619
1999 11 09.53205 02 18 19.96 +27 48 13.7   411 – Oizumi MPS 7431
1999 11 09.54174 02 18 19.41 +27 48 09.9   411 – Oizumi MPS 7431
1999 11 10.34027 02 17 38.84 +27 43 15.9 17.7 R 703 – Catalina Sky Survey MPS 7431
1999 11 10.35251 02 17 38.21 +27 43 10.8 17.8 R 703 – Catalina Sky Survey MPS 7431
1999 11 10.36480 02 17 37.55 +27 43 06.3 17.7 R 703 – Catalina Sky Survey MPS 7431
1999 11 10.37700 02 17 36.97 +27 43 01.7 17.7 R 703 – Catalina Sky Survey MPS 7431
1999 11 13.44361 02 15 07.44 +27 23 27.6   411 – Oizumi MPS 7431
1999 11 13.45098 02 15 07.01 +27 23 25.3   411 – Oizumi MPS 7431
1999 11 13.45540 02 15 06.85 +27 23 23.0   411 – Oizumi MPS 7431
1999 11 26.44421 02 06 23.81 +25 54 56.3   411 – Oizumi MPS 7842
1999 11 26.45143 02 06 23.62 +25 54 52.5   411 – Oizumi MPS 7842
1999 11 26.45438 02 06 23.55 +25 54 51.2   411 – Oizumi MPS 7842
1999 11 28.40991 02 05 24.58 +25 41 28.8   411 – Oizumi MPS 7842
1999 11 28.43321 02 05 23.79 +25 41 18.0   411 – Oizumi MPS 7842
1999 12 05.08068 02 02 48.69 +24 57 09.0 18.4 R 699 – Lowell Observatory-LONEOS MPS 7842
1999 12 05.08933 02 02 48.53 +24 57 04.2 18.6 R 703 – Catalina Sky Survey MPS 7842
1999 12 05.10176 02 02 48.25 +24 56 59.5 18.7 R 703 – Catalina Sky Survey MPS 7842
1999 12 05.10865 02 02 48.07 +24 56 58.5   699 – Lowell Observatory-LONEOS MPS 7842
1999 12 05.11405 02 02 47.94 +24 56 54.8 18.5 R 703 – Catalina Sky Survey MPS 7842
1999 12 05.12637 02 02 47.68 +24 56 50.8 18.5 R 703 – Catalina Sky Survey MPS 7842
1999 12 05.13661 02 02 47.48 +24 56 47.4   699 – Lowell Observatory-LONEOS MPS 7842
1999 12 10.13856 02 01 39.48 +24 25 51.4 19.2   704 – Lincoln Laboratory ETS, New Mexico MPS 7842
1999 12 10.16840 02 01 39.14 +24 25 40.2 19.3   704 – Lincoln Laboratory ETS, New Mexico MPS 7842
1999 12 10.18327 02 01 39.13 +24 25 34.7 19.2   704 – Lincoln Laboratory ETS, New Mexico MPS 7842
1999 12 13.07852 02 01 19.70 +24 08 52.9 18.1 R 703 – Catalina Sky Survey MPS 7842
1999 12 13.09072 02 01 19.61 +24 08 49.1 18.1 R 703 – Catalina Sky Survey MPS 7842
1999 12 13.10293 02 01 19.53 +24 08 45.2 18.0 R 703 – Catalina Sky Survey MPS 7842
1999 12 13.11515 02 01 19.47 +24 08 41.7 18.1 R 703 – Catalina Sky Survey MPS 7842
2000 01 03.14922 02 05 53.98 +22 41 16.3 18.9   704 – Lincoln Laboratory ETS, New Mexico MPS 8619
2000 01 03.16396 02 05 54.45 +22 41 14.6 19.5   704 – Lincoln Laboratory ETS, New Mexico MPS 8619
2000 01 03.17867 02 05 54.86 +22 41 12.0 19.2   704 – Lincoln Laboratory ETS, New Mexico MPS 8619
2000 01 03.19337 02 05 55.28 +22 41 10.6 19.4   704 – Lincoln Laboratory ETS, New Mexico MPS 8619
2000 01 03.20829 02 05 55.59 +22 41 08.3 20.0   704 – Lincoln Laboratory ETS, New Mexico MPS 8619
2000 01 31.08494 02 27 51.29 +22 18 51.3 19.2   704 – Lincoln Laboratory ETS, New Mexico MPS 9954
2000 01 31.09963 02 27 52.20 +22 18 52.2 19.7   704 – Lincoln Laboratory ETS, New Mexico MPS 9954
2000 01 31.11431 02 27 53.15 +22 18 52.1 19.1   704 – Lincoln Laboratory ETS, New Mexico MPS 9954
2000 01 31.12903 02 27 54.05 +22 18 53.0 19.4   704 – Lincoln Laboratory ETS, New Mexico MPS 9954
2000 01 31.14377 02 27 54.92 +22 18 53.4 19.4   704 – Lincoln Laboratory ETS, New Mexico MPS 9954
2001 01 31.32080 09 24 24.04 +09 40 35.7 18.6   704 – Lincoln Laboratory ETS, New Mexico MPS 26546
2001 01 31.33572 09 24 23.24 +09 40 36.0 18.4   704 – Lincoln Laboratory ETS, New Mexico MPS 26546
2001 01 31.35064 09 24 22.42 +09 40 37.6 18.7   704 – Lincoln Laboratory ETS, New Mexico MPS 26546
2001 01 31.36556 09 24 21.68 +09 40 38.2 18.6   704 – Lincoln Laboratory ETS, New Mexico MPS 26546
2001 01 31.38048 09 24 20.86 +09 40 39.7 18.4   704 – Lincoln Laboratory ETS, New Mexico MPS 26546
2001 02 16.23775 09 10 31.81 +10 12 11.4 18.4 R 699 – Lowell Observatory-LONEOS MPS 27626
2001 02 16.25960 09 10 30.72 +10 12 13.8   699 – Lowell Observatory-LONEOS MPS 27626
2001 02 16.28143 09 10 29.62 +10 12 16.2   699 – Lowell Observatory-LONEOS MPS 27626
2001 02 16.30332 09 10 28.46 +10 12 19.0   699 – Lowell Observatory-LONEOS MPS 27626
2001 02 19.25490 09 08 03.18 +10 18 41.4 18.3   704 – Lincoln Laboratory ETS, New Mexico MPS 26546
2001 02 19.27219 09 08 02.35 +10 18 44.4 18.9   704 – Lincoln Laboratory ETS, New Mexico MPS 26546
2001 02 19.29406 09 08 01.23 +10 18 47.1 19.0   704 – Lincoln Laboratory ETS, New Mexico MPS 26546
2001 02 19.31413 09 08 00.29 +10 18 49.3 19.2   704 – Lincoln Laboratory ETS, New Mexico MPS 26546
2001 02 19.32805 09 07 59.62 +10 18 51.2 18.6   704 – Lincoln Laboratory ETS, New Mexico MPS 26546
2002 05 15.17478 13 02 04.91 -19 28 49.6 19.8   644 – Palomar Mountain/NEAT MPS 54395
2002 05 15.19520 13 02 04.32 -19 28 43.2 19.6   644 – Palomar Mountain/NEAT MPS 54395
2002 05 15.21604 13 02 03.71 -19 28 35.7 19.8   644 – Palomar Mountain/NEAT MPS 54395
2004 06 16.43300 00 50 36.40 +13 17 14.3 20.0 R 703 – Catalina Sky Survey MPS 108945
2004 06 16.44046 00 50 37.11 +13 17 21.0 18.7 R 703 – Catalina Sky Survey MPS 108945
2004 06 16.44789 00 50 37.55 +13 17 25.8 18.9 R 703 – Catalina Sky Survey MPS 108945
2004 06 16.45535 00 50 38.10 +13 17 29.1 18.7 R 703 – Catalina Sky Survey MPS 108945
2004 08 19.34793 01 44 55.98 +22 42 44.8 18.3   704 – Lincoln Laboratory ETS, New Mexico MPS 111762
2004 08 19.35772 01 44 56.16 +22 42 49.0 19.3   704 – Lincoln Laboratory ETS, New Mexico MPS 111762
2004 08 19.36752 01 44 56.33 +22 42 52.8 19.1   704 – Lincoln Laboratory ETS, New Mexico MPS 111762
2004 08 19.37743 01 44 56.51 +22 42 56.6 18.8   704 – Lincoln Laboratory ETS, New Mexico MPS 111762
2004 09 11.29409 01 44 56.06 +24 28 11.5 19.3   704 – Lincoln Laboratory ETS, New Mexico MPS 112549
2004 09 11.30576 01 44 55.82 +24 28 15.2 19.7   704 – Lincoln Laboratory ETS, New Mexico MPS 112549
2004 09 11.31804 01 44 55.64 +24 28 17.9 19.8   704 – Lincoln Laboratory ETS, New Mexico MPS 112549
2004 09 11.32994 01 44 55.33 +24 28 15.8 19.7   704 – Lincoln Laboratory ETS, New Mexico MPS 112549
2004 09 11.34230 01 44 55.09 +24 28 20.3 19.4   704 – Lincoln Laboratory ETS, New Mexico MPS 112549
2004 09 14.30804 01 43 54.54 +24 35 28.2 19.0   704 – Lincoln Laboratory ETS, New Mexico MPS 112549
2004 09 14.31922 01 43 54.20 +24 35 28.8 19.5   704 – Lincoln Laboratory ETS, New Mexico MPS 112549
2004 09 14.35291 01 43 53.37 +24 35 34.9 19.4   704 – Lincoln Laboratory ETS, New Mexico MPS 112549
2004 09 18.30728 01 42 11.68 +24 42 17.7 18.9   704 – Lincoln Laboratory ETS, New Mexico MPS 114084
2004 09 18.31916 01 42 11.23 +24 42 18.1 20.2   704 – Lincoln Laboratory ETS, New Mexico MPS 114084
2004 09 18.33105 01 42 10.91 +24 42 19.4 19.2   704 – Lincoln Laboratory ETS, New Mexico MPS 114084
2004 09 18.34295 01 42 10.56 +24 42 20.5 18.8   704 – Lincoln Laboratory ETS, New Mexico MPS 114084
